[[{"header":{"parameterUnit":"m.s-1","parameterCategory":1,"la1":30.2991,"la2":30.254,"lo1":-89.0895,"lo2":-89.0444,"dy":0.0017,"dx":0.0017,"nx":28,"ny":28,"refTime":"2025-04-13T21:00:00:Z","depth":0,"parameterNumber":2,"parameterNumberName":"U-component_of_WINDS"},"data":[0,0,0,0,0,0,0,0,0,0,0,0,0,0,0,0,0,0,0,0,0,0,0,0,0,0,0,0,0,0,0,0,0,0,0,0,0,0,0,0,0,0,0,0,0,0,0,0,0,0,0,0,0,0,0,0,0,0,-1.8395,-1.8395,0,-1.84,-1.84,-1.84,-1.8418,-1.8418,-1.8419,-1.8419,-1.8424,-1.8423,-1.8423,0,0,0,0,0,0,0,0,0,0,0,0,0,-1.8399,-1.8399,-1.8395,-1.8395,-1.8395,-1.84,-1.84,-1.84,-1.8418,-1.8418,-1.8419,-1.8419,-1.8424,-1.8423,-1.8423,0,0,0,0,0,0,0,0,0,0,0,0,0,-1.84,-1.8399,-1.8395,-1.8404,-1.8405,-1.84,-1.84,-1.84,-1.8418,-1.8418,-1.8419,-1.8419,-1.8424,-1.8423,-1.8423,-1.8409,0,0,-1.8422,-1.8422,0,0,0,0,0,0,0,0,-1.84,-1.84,-1.8403,-1.8403,-1.8404,-1.8409,-1.8403,-1.8403,-1.8417,-1.8413,-1.8419,-1.842,-1.8418,-1.8418,-1.8418,-1.8409,-1.8409,-1.8422,-1.8422,-1.8421,-1.8421,0,0,0,0,0,0,0,-1.84,-1.84,-1.8397,-1.8403,-1.8404,-1.8408,-1.8409,-1.8403,-1.8412,-1.8413,-1.8415,-1.8415,-1.8419,-1.8418,-1.8418,-1.8409,-1.8422,-1.8421,-1.8421,-1.8421,-1.8387,-1.8387,0,0,0,0,0,0,-1.8398,-1.8399,-1.8396,-1.8397,-1.8404,-1.8407,-1.8408,-1.8407,-1.8412,-1.8413,-1.8414,-1.8416,-1.8418,-1.8418,-1.8418,-1.84,-1.8421,-1.8421,-1.8421,-1.8388,-1.8387,-1.8386,0,0,0,0,0,0,-1.8399,-1.8398,-1.8396,-1.8398,-1.8399,-1.8407,-1.8405,-1.8407,-1.8406,-1.8413,-1.8415,-1.8412,-1.8419,-1.8419,-1.8411,-1.8401,-1.8421,-1.842,-1.8389,-1.8388,-1.8387,-1.8365,0,0,0,0,0,0,-1.8399,-1.8398,-1.8393,-1.8398,-1.8398,-1.8388,-1.8404,-1.8406,-1.8405,-1.8407,-1.8411,-1.8413,-1.8419,-1.8411,-1.841,-1.8401,-1.842,-1.839,-1.8388,-1.8387,-1.8367,-1.8364,-1.8361,0,0,0,0,0,-1.8399,-1.8386,-1.8392,-1.8392,-1.8392,-1.8388,-1.8388,-1.8396,-1.8405,-1.8399,-1.8404,-1.8412,-1.8403,-1.841,-1.8409,-1.8399,-1.839,-1.8389,-1.8387,-1.8368,-1.8364,-1.8361,0,0,0,0,0,0,-1.8379,-1.8387,-1.8394,-1.8383,-1.8385,-1.8391,-1.8384,-1.8392,-1.8391,-1.8393,-1.8403,-1.8404,-1.8394,-1.8396,-1.8404,-1.8385,-1.8398,-1.8396,-1.8384,-1.838,-1.8377,-1.8376,-1.842,0,0,0,0,0,-1.8374,-1.837,-1.8378,-1.8367,-1.8368,-1.8376,-1.8374,-1.8381,-1.8383,-1.8383,-1.8387,-1.8388,-1.8386,-1.8383,-1.8381,-1.8368,-1.8368,-1.8361,-1.8358,-1.8356,-1.8353,-1.8345,-1.8341,-1.8381,-1.8381,-1.8381,0,0,-1.8362,-1.8366,-1.8363,-1.8363,-1.8365,-1.8361,-1.8376,-1.8371,-1.8367,-1.8382,-1.8374,-1.8378,-1.838,-1.8368,-1.8364,-1.837,-1.8343,-1.8354,-1.8352,-1.8351,-1.8343,-1.8339,-1.8336,-1.838,-1.8381,-1.8381,0,0,-1.8338,-1.8342,-1.8333,-1.8335,-1.8338,-1.8343,-1.8341,-1.8346,-1.8349,-1.8341,-1.8352,-1.8348,-1.8343,-1.8344,-1.8343,-1.832,-1.8328,-1.8319,-1.8303,-1.8295,-1.8292,-1.8289,-1.8279,-1.8275,-1.8318,-1.8318,-1.8318,0,-1.8323,-1.8317,-1.8327,-1.8321,-1.832,-1.8335,-1.8325,-1.8327,-1.8328,-1.8327,-1.8335,-1.8328,-1.8331,-1.8319,-1.8314,-1.8314,-1.8311,-1.8318,-1.8292,-1.8289,-1.8286,-1.8277,-1.8273,-1.8316,-1.8316,-1.8317,-1.8317,0,-1.8298,-1.8293,-1.8286,-1.8287,-1.8286,-1.8278,-1.8287,-1.8285,-1.8291,-1.8296,-1.8287,-1.8291,-1.8289,-1.8288,-1.8294,-1.8277,-1.8281,-1.829,-1.8302,-1.8281,-1.8272,-1.8269,-1.8315,-1.8315,-1.8315,-1.8316,0,0,-1.826,-1.8268,-1.8264,-1.8265,-1.8269,-1.8266,-1.8259,-1.8257,-1.8254,-1.8255,-1.8249,-1.8245,-1.8253,-1.8252,-1.826,-1.8253,-1.8232,-1.8263,-1.8263,-1.8255,-1.8211,-1.8202,-1.8198,-1.8238,-1.8237,-1.8237,-1.821,0,-1.8236,-1.8224,-1.8233,-1.8219,-1.8214,-1.8228,-1.8222,-1.8223,-1.8228,-1.8224,-1.8229,-1.8225,-1.8238,-1.8237,-1.8231,-1.8236,-1.8223,-1.8238,-1.823,-1.823,-1.8227,-1.8194,-1.8184,-1.8159,-1.8207,-1.8206,-1.8206,0,-1.8205,-1.8205,-1.819,-1.8195,-1.8193,-1.8187,-1.8186,-1.8183,-1.8186,-1.8189,-1.8189,-1.8198,-1.819,-1.8204,-1.8194,-1.8204,-1.8202,-1.8203,-1.8203,-1.82,-1.8215,-1.8188,-1.8151,-1.8146,-1.8201,-1.8201,-1.8202,0,-1.8176,-1.8173,-1.8163,-1.8163,-1.8169,-1.8164,-1.8167,-1.817,-1.8168,-1.8167,-1.8166,-1.8165,-1.8163,-1.8162,-1.817,-1.818,-1.8158,-1.8173,-1.8159,-1.8159,-1.8152,-1.8152,-1.8111,-1.8154,-1.8154,-1.8155,-1.8155,0,-1.8147,-1.8137,-1.815,-1.8144,-1.8133,-1.8144,-1.8133,-1.8137,-1.8139,-1.8134,-1.8147,-1.8141,-1.8153,-1.8148,-1.8155,-1.8144,-1.8144,-1.8146,-1.8147,-1.8143,-1.8142,-1.814,-1.8141,-1.8154,-1.8154,-1.8154,-1.8154,0,-1.8112,-1.8121,-1.8111,-1.8117,-1.8119,-1.811,-1.8116,-1.811,-1.8116,-1.8108,-1.8107,-1.8116,-1.8111,-1.812,-1.8117,-1.8121,-1.8105,-1.811,-1.8104,-1.8104,-1.809,-1.809,-1.8044,-1.8038,-1.8087,-1.8087,-1.8086,0,-1.8091,-1.8084,-1.809,-1.8087,-1.8088,-1.8084,-1.8082,-1.8093,-1.8091,-1.8093,-1.8087,-1.8083,-1.8081,-1.8073,-1.8078,-1.8075,-1.8079,-1.8064,-1.8079,-1.8075,-1.8076,-1.8075,-1.8074,-1.8059,-1.8059,-1.8058,-1.8058,0,-1.8053,-1.8057,-1.8054,-1.8053,-1.8051,-1.805,-1.805,-1.8047,-1.8059,-1.8056,-1.8051,-1.8049,-1.8046,-1.8041,-1.804,-1.8042,-1.8051,-1.8054,-1.805,-1.8044,-1.804,-1.804,-1.8093,-1.8054,-1.8054,-1.8055,-1.8055,-1.8055,-1.8022,-1.8016,-1.8019,-1.8015,-1.8017,-1.8017,-1.8011,-1.8016,-1.8013,-1.8011,-1.8018,-1.8011,-1.8014,-1.8013,-1.8014,-1.8008,-1.8015,-1.801,-1.8008,-1.8006,-1.8003,-1.8043,-1.8008,-1.8009,-1.8009,-1.8009,-1.8009,0,-1.7982,-1.7985,-1.7982,-1.7982,-1.7979,-1.7989,-1.799,-1.7986,-1.798,-1.7982,-1.7979,-1.7974,-1.797,-1.7975,-1.7972,-1.7967,-1.7971,-1.7965,-1.7964,-1.7964,-1.7998,-1.8001,-1.7962,-1.7962,-1.7962,-1.7962,-1.7962,-1.7962,-1.7961,-1.795,-1.7955,-1.7945,-1.7948,-1.7942,-1.7941,-1.7941,-1.7942,-1.7935,-1.7932,-1.7936,-1.7939,-1.7936,-1.7932,-1.7934,-1.7931,-1.7924,-1.7926,-1.7958,-1.7962,-1.7966,-1.7968,-1.7924,-1.7924,-1.7893,-1.7892,-1.7892]},{"header":{"parameterUnit":"m.s-1","parameterCategory":1,"la1":30.2991,"la2":30.254,"lo1":-89.0895,"lo2":-89.0444,"dy":0.0017,"dx":0.0017,"nx":28,"ny":28,"refTime":"2025-04-13T21:00:00:Z","depth":0,"parameterNumber":3,"parameterNumberName":"V-component_of_WINDS"},"data":[0,0,0,0,0,0,0,0,0,0,0,0,0,0,0,0,0,0,0,0,0,0,0,0,0,0,0,0,0,0,0,0,0,0,0,0,0,0,0,0,0,0,0,0,0,0,0,0,0,0,0,0,0,0,0,0,0,0,1.0411,1.0412,0,1.0529,1.053,1.0532,1.055,1.0549,1.0548,1.0547,1.0675,1.0679,1.0684,0,0,0,0,0,0,0,0,0,0,0,0,0,1.0209,1.0213,1.0411,1.0412,1.0414,1.0529,1.053,1.0532,1.0551,1.0549,1.0548,1.0547,1.0673,1.0679,1.0684,0,0,0,0,0,0,0,0,0,0,0,0,0,1.0309,1.0214,1.041,1.0437,1.044,1.0528,1.053,1.0532,1.0551,1.0549,1.0548,1.0546,1.0672,1.0678,1.0685,1.0757,0,0,1.0705,1.0708,0,0,0,0,0,0,0,0,1.0303,1.0316,1.0431,1.0435,1.0439,1.0523,1.0506,1.0608,1.0551,1.0509,1.0547,1.0545,1.0626,1.0636,1.0662,1.0763,1.0768,1.0705,1.0709,1.0712,1.0714,0,0,0,0,0,0,0,1.0296,1.0311,1.0458,1.0433,1.0438,1.0445,1.0458,1.0525,1.0575,1.0513,1.0514,1.0528,1.0628,1.0656,1.0665,1.077,1.0705,1.0711,1.0715,1.0718,1.0941,1.0943,0,0,0,0,0,0,1.0284,1.0305,1.0454,1.0461,1.0366,1.045,1.0464,1.0498,1.0575,1.0585,1.0529,1.0528,1.0645,1.0658,1.067,1.0763,1.0712,1.0718,1.0722,1.0939,1.0941,1.0943,0,0,0,0,0,0,1.0279,1.0297,1.0449,1.0384,1.0404,1.0455,1.0493,1.0501,1.0529,1.0587,1.0596,1.0548,1.0645,1.0661,1.0736,1.0767,1.0721,1.0727,1.0936,1.0939,1.0942,1.0947,0,0,0,0,0,0,1.0273,1.0295,1.0321,1.0384,1.0407,1.051,1.0495,1.0504,1.0539,1.0539,1.0607,1.0617,1.0645,1.0726,1.0742,1.0776,1.0732,1.0934,1.0938,1.0941,1.0944,1.0949,1.0954,0,0,0,0,0,1.0266,1.0318,1.0322,1.034,1.044,1.0512,1.0526,1.0555,1.0542,1.057,1.0608,1.0615,1.076,1.0733,1.0752,1.0788,1.0932,1.0937,1.0941,1.0942,1.0948,1.0954,0,0,0,0,0,0,1.0259,1.0327,1.0332,1.0405,1.0453,1.0515,1.0551,1.056,1.0614,1.0612,1.0648,1.0663,1.0737,1.077,1.0738,1.0864,1.0846,1.0854,1.084,1.0847,1.0852,1.0843,1.0738,0,0,0,0,0,1.0266,1.0316,1.0373,1.0433,1.0456,1.05,1.0532,1.055,1.0602,1.0622,1.0665,1.0717,1.0775,1.0812,1.0868,1.0948,1.0965,1.0982,1.0987,1.0991,1.0999,1.1047,1.1057,1.0958,1.0958,1.0958,0,0,1.0281,1.0324,1.0354,1.0433,1.0471,1.0526,1.0516,1.0573,1.0615,1.0632,1.0705,1.0739,1.0799,1.0878,1.0914,1.0907,1.103,1.0997,1.0999,1.1005,1.1053,1.1062,1.107,1.0961,1.096,1.096,0,0,1.0337,1.0373,1.0428,1.0467,1.0525,1.0554,1.0567,1.0628,1.0651,1.0725,1.0739,1.0791,1.0888,1.0932,1.0966,1.104,1.105,1.1057,1.1085,1.1132,1.1139,1.1147,1.1176,1.1186,1.1064,1.1064,1.1064,0,1.0349,1.0428,1.0455,1.0513,1.0549,1.0564,1.0622,1.0659,1.0734,1.076,1.075,1.0875,1.0916,1.1007,1.1025,1.1051,1.107,1.1051,1.1135,1.1143,1.115,1.1179,1.119,1.1065,1.1065,1.1065,1.1065,0,1.0442,1.0498,1.0536,1.0606,1.0646,1.0703,1.0742,1.0779,1.0794,1.0825,1.0903,1.0953,1.1021,1.1043,1.1059,1.1137,1.1131,1.1128,1.1111,1.116,1.1188,1.1199,1.1066,1.1066,1.1066,1.1066,0,0,1.0498,1.0582,1.0596,1.0629,1.0695,1.074,1.08,1.0864,1.0898,1.0949,1.1002,1.1085,1.1083,1.1123,1.1144,1.1184,1.1244,1.1177,1.1179,1.119,1.1337,1.1342,1.1354,1.125,1.1252,1.1254,1.1334,0,1.0564,1.0667,1.0694,1.0784,1.0838,1.0854,1.0907,1.0955,1.0985,1.1038,1.1072,1.1132,1.1123,1.1148,1.1188,1.1228,1.1274,1.1222,1.1303,1.1306,1.129,1.1368,1.1372,1.1445,1.1344,1.1346,1.1347,0,1.0654,1.0706,1.0801,1.0862,1.0886,1.0932,1.0995,1.1043,1.11,1.1119,1.1164,1.1181,1.1248,1.1225,1.1319,1.1283,1.1317,1.1342,1.1346,1.1357,1.1331,1.1384,1.1468,1.148,1.1364,1.1363,1.1362,0,1.0689,1.0783,1.0852,1.088,1.0952,1.0985,1.1017,1.1071,1.1109,1.1165,1.1191,1.1254,1.129,1.134,1.1375,1.1355,1.1467,1.1447,1.1489,1.1488,1.1514,1.1512,1.1608,1.1531,1.1531,1.153,1.153,0,1.0762,1.082,1.0869,1.0912,1.0979,1.1011,1.1077,1.111,1.1159,1.1211,1.1229,1.1278,1.132,1.1376,1.1405,1.148,1.1495,1.1516,1.1523,1.1516,1.1514,1.1541,1.1538,1.1533,1.1533,1.1532,1.1532,0,1.0813,1.0848,1.0925,1.0987,1.1004,1.1051,1.1106,1.115,1.1181,1.1248,1.1265,1.1315,1.1382,1.1422,1.1507,1.1526,1.161,1.1614,1.1591,1.1595,1.1636,1.1633,1.1755,1.1774,1.1681,1.1682,1.1683,0,1.0858,1.0903,1.097,1.1005,1.1037,1.1094,1.1133,1.1166,1.1207,1.1275,1.1312,1.1379,1.1436,1.1543,1.1588,1.1654,1.1662,1.17,1.1672,1.1664,1.1667,1.1665,1.1671,1.1706,1.1707,1.1707,1.1708,0,1.0936,1.0951,1.1005,1.1066,1.1112,1.1162,1.1212,1.124,1.1283,1.1328,1.1396,1.1439,1.1526,1.1594,1.1664,1.17,1.1713,1.1716,1.173,1.1724,1.1711,1.1722,1.1608,1.1714,1.1713,1.1713,1.1712,1.1712,1.0988,1.103,1.1084,1.1145,1.1185,1.1232,1.1277,1.1314,1.137,1.1442,1.1459,1.1531,1.1589,1.1684,1.1722,1.1782,1.1776,1.1795,1.18,1.1805,1.1808,1.1698,1.1794,1.1794,1.1794,1.1794,1.1794,0,1.107,1.1105,1.116,1.1229,1.1278,1.1282,1.1338,1.138,1.1442,1.1494,1.1549,1.1628,1.1695,1.1746,1.1815,1.1853,1.1861,1.1871,1.187,1.1879,1.1808,1.179,1.1864,1.1864,1.1864,1.1864,1.1863,1.1863,1.1118,1.119,1.1212,1.1306,1.1342,1.1412,1.1444,1.1488,1.153,1.1618,1.1673,1.1704,1.1757,1.1831,1.1894,1.1907,1.1933,1.1943,1.1958,1.1891,1.1884,1.1876,1.1861,1.1947,1.1947,1.2025,1.2025,1.2026]}]]